星链-11404 (STARLINK-11404)

导读

STARLINK-11404是美国SpaceX星链星座的成员卫星,于2024年11月18日发射入轨,属于星链大规模组网的组成部分。作为低轨通信卫星,它依托星链V2 Mini技术方案,可支持全球宽带互联网接入,部分该批次卫星还具备直连手机通信能力,能够在偏远地区提供基础蜂窝连接服务,助力完善星链覆盖网络,推动全球泛在互联服务落地。

基本信息
目录编号:
62019
目录名称:
STARLINK-11404
国际标识:
2024-213M
轨道中心:
EARTH
卫星名称:
星链-11404
卫星全名:
星链-11404 (STARLINK-11404)
卫星状态:
在轨 (已飞行569 天)
发射日期:
2024-11-18 UTC
国别 :
美国 (US)
星等 :
--
轨道信息
数据来源 国际轨道数据
星历时间: 2026-06-10T02:36:11+0800
16小时前
查看轨道信息
半长轴: 6737.759km
偏心率: 0.0001724
轨道倾角: 53.158°
近地点辐角 29.207°
升交点赤经 307.653°
平近点角 330.904°
近地点: 358.46km
远地点: 360.784km
周期: 91.735分钟
每日圈数: 15.697467
详细信息
固有亮度:
5
最大亮度:
2.5
卫星平台:
Starlink V1.0
覆盖范围:
全球
运营商:
太空探索技术公司
运营商所在国:
美国
制造商(研发单位):
太空探索技术公司
制造商所在国:
美国
使用方式:
暂无
卫星简介
Starlink 计划是 SpaceX 推出的全球卫星互联网项目,通过发射低轨道卫星,为全球尤其是偏远地区提供高速、低延迟的互联网服务。自 2019 年起,Starlink 已部署数千颗卫星,旨在缩小全球数字鸿沟,推动互联网普及。该项目还为军事、航空等行业提供通信支持,带来广泛经济效益。
2D轨道图
3D轨道图
轨道高度分析图
轨道倾角分析图
轨道综合分析图
查看轨道综合分析图